DW2536 Weather Reports


time (UTC)temp
F
wind
direction
speed
knots
gust
knots
rain 1hr
in
rain 24hr
in
rain mn
in
humidity
%
barometer
mb
20260503072519 60 339 0.0 0.0 0.00 0.14 0.11 82 1011.8
20260503071521 60 92 0.0 2.6 0.00 0.14 0.11 82 1011.8
20260503070524 59 11 0.0 1.7 0.00 0.14 0.11 82 1011.7
20260503054524 58 346 0.0 0.9 0.00 0.14 0.11 83 1012.0
20260503053525 58 68 0.0 1.7 0.00 0.14 0.11 83 1012.0
20260503052540 57 0.0 0.0 0.00 0.14 0.11 82 1012.3
20260503051519 57 0.0 0.0 0.00 0.14 0.11 83 1012.3
20260503050522 57 0.0 0.0 0.00 0.14 0.11 83 1012.3
20260503045518 57 0.0 0.0 0.00 0.14 0.11 82 1012.3
20260503044521 56 0.0 0.0 0.00 0.14 0.11 82 1012.3
20260503043541 56 0.0 0.0 0.00 0.14 0.11 82 1012.3
20260503042524 56 0.0 0.0 0.03 0.14 0.11 82 1012.2
20260503041525 56 0.0 0.0 0.03 0.14 0.11 82 1012.2
20260503040525 56 0.0 0.0 0.06 0.14 0.11 82 1012.3
20260503035522 56 66 0.0 0.0 0.06 0.14 0.11 82 1012.3
20260503034524 57 87 0.0 0.9 0.06 0.14 0.11 82 1012.5
20260503033546 57 139 0.0 0.0 0.06 0.14 0.11 81 1012.5
20260503032526 57 84 0.0 1.7 0.03 0.11 0.08 81 1013.1
20260503031546 57 177 0.0 0.0 0.03 0.11 0.08 81 1013.2
20260503030537 57 74 0.0 1.7 0.00 0.08 0.06 80 1013.3
20260503025518 57 0.0 0.0 0.00 0.08 0.06 80 1013.3
20260503024518 57 217 0.0 1.7 0.00 0.08 0.06 80 1013.2
20260503023519 57 0.0 0.0 0.00 0.08 0.06 80 1013.2
20260503022520 57 0.0 1.7 0.00 0.08 0.06 79 1013.5
20260503021521 57 0.0 0.0 0.00 0.08 0.06 79 1013.6
20260503020520 57 262 0.0 0.0 0.00 0.08 0.06 79 1013.4
20260503015522 57 79 0.0 1.7 0.00 0.08 0.06 79 1013.4
20260503014522 57 139 0.0 0.9 0.00 0.08 0.06 79 1013.2
20260503013525 57 0.0 0.0 0.00 0.08 0.06 79 1013.2
20260503012537 57 0.0 0.0 0.00 0.08 0.06 78 1013.5
20260503011538 57 0.0 0.0 0.00 0.08 0.06 78 1013.5
20260503010539 57 73 0.0 0.0 0.00 0.08 0.06 78 1013.7
20260503005520 56 83 0.0 1.7 0.00 0.08 0.06 78 1013.7
20260503004521 56 86 0.0 0.0 0.00 0.08 0.06 78 1013.7
20260503003523 57 87 0.0 0.9 0.00 0.08 0.06 78 1013.7
20260503002523 57 89 0.9 1.7 0.00 0.08 0.06 78 1013.9
20260503001524 57 121 0.0 0.0 0.00 0.08 0.06 77 1013.9
20260503000523 57 0.0 0.0 0.00 0.08 0.06 77 1014.1
20260502235522 57 0.0 0.9 0.00 0.08 0.06 77 1014.1
20260502234543 57 68 0.0 0.0 0.00 0.08 0.06 77 1014.4
20260502233524 57 225 0.0 0.9 0.00 0.08 0.06 77 1014.4
20260502232547 57 125 0.0 1.7 0.03 0.08 0.06 76 1014.5
20260502231537 57 92 0.0 0.9 0.03 0.08 0.06 76 1014.5
20260502230517 57 130 0.9 1.7 0.03 0.08 0.06 76 1014.6
20260502225520 57 180 0.9 1.7 0.06 0.08 0.06 75 1014.6
20260502224520 56 126 2.6 2.6 0.08 0.08 0.06 75 1014.9
20260502223523 57 127 1.7 5.2 0.08 0.08 0.06 74 1014.9
20260502222523 57 98 1.7 4.3 0.06 0.06 0.03 72 1014.7
20260502221521 57 140 3.5 4.3 0.06 0.06 0.03 71 1014.7
20260502220521 57 108 2.6 7.8 0.06 0.06 0.03 68 1016.2
20260502215542 58 89 1.7 1.7 0.03 0.03 0.03 67 1016.5
20260502214523 59 246 0.9 4.3 0.00 0.00 0.00 63 1015.9
20260502213523 60 208 0.9 5.2 0.00 0.00 0.00 59 1015.8
20260502212525 59 86 1.7 2.6 0.00 0.00 0.00 59 1015.6
20260502211537 59 57 1.7 2.6 0.00 0.00 0.00 58 1015.5
20260502210519 59 81 2.6 2.6 0.00 0.00 0.00 58 1015.9
20260502205600 59 62 1.7 5.2 0.00 0.00 0.00 58 1016.0
20260502204521 59 68 1.7 2.6 0.00 0.00 0.00 57 1016.1
20260502203517 59 76 1.7 5.2 0.00 0.00 0.00 57 1016.1
20260502202517 59 73 0.9 2.6 0.00 0.00 0.00 57 1016.4
20260502201520 59 68 1.7 2.6 0.00 0.00 0.00 58 1016.5
20260502200522 60 87 1.7 2.6 0.00 0.00 0.00 55 1016.5
20260502195522 60 80 1.7 3.5 0.00 0.00 0.00 54 1016.5
20260502194522 60 55 0.9 1.7 0.00 0.00 0.00 52 1016.7
20260502193525 61 76 0.9 2.6 0.00 0.00 0.00 50 1016.8
20260502192527 61 196 0.9 2.6 0.00 0.00 0.00 49 1016.7
20260502191515 62 109 0.9 1.7 0.00 0.00 0.00 47 1016.7
20260502190527 62 74 1.7 1.7 0.00 0.00 0.00 46 1016.8
20260502185516 63 73 0.9 2.6 0.00 0.00 0.00 45 1016.8
20260502184527 63 17 0.0 0.9 0.00 0.00 0.00 43 1016.8
20260502183517 64 88 0.0 1.7 0.00 0.00 0.00 42 1016.8
20260502182517 64 353 0.0 0.9 0.00 0.00 0.00 41 1016.7
20260502181518 65 98 0.9 0.9 0.00 0.00 0.00 40 1016.7
20260502180540 65 112 0.9 2.6 0.00 0.00 0.00 40 1016.9
20260502170519 66 309 1.7 1.7 0.00 0.00 0.00 37 1017.7
20260502163519 67 289 1.7 3.5 0.00 0.00 0.00 36 1018.0
20260502162520 67 315 1.7 5.2 0.00 0.00 0.00 36 1018.1
20260502161518 68 272 1.7 3.5 0.00 0.00 0.00 36 1018.2
20260502160536 68 282 2.6 4.3 0.00 0.00 0.00 36 1018.3
20260502151518 68 276 1.7 4.3 0.00 0.00 0.00 38 1018.5
20260502150519 68 309 1.7 3.5 0.00 0.00 0.00 38 1018.7
20260502130522 68 152 0.9 3.5 0.00 0.00 0.00 44 1019.9
20260502123519 68 245 1.7 4.3 0.00 0.00 0.00 49 1020.1
20260502122521 68 242 1.7 3.5 0.00 0.00 0.00 51 1020.3
20260502121541 68 271 2.6 5.2 0.00 0.00 0.00 54 1020.3
20260502120556 68 315 2.6 3.5 0.00 0.00 0.00 55 1020.3
20260502115024 69 281 1.7 3.5 0.00 0.00 0.00 58 1020.1
20260502114023 69 294 1.7 2.6 0.00 0.00 0.00 59 1020.4
20260502113025 69 256 1.7 4.3 0.00 0.00 0.00 59 1020.4
20260502112022 70 226 0.9 7.0 0.00 0.00 0.00 59 1020.6
20260502111017 69 250 1.7 2.6 0.00 0.00 0.00 60 1020.6
20260502110519 69 255 1.7 4.3 0.00 0.00 0.00 62 1020.6
20260502105524 68 266 0.9 2.6 0.00 0.00 0.00 63 1020.5
20260502104525 67 316 1.7 4.3 0.00 0.00 0.00 64 1020.6
20260502103527 67 290 1.7 4.3 0.00 0.00 0.00 65 1020.7
20260502102528 67 282 1.7 2.6 0.00 0.00 0.00 64 1020.6
20260502101531 67 233 1.7 2.6 0.00 0.00 0.00 65 1020.5
20260502100523 67 183 0.9 5.2 0.00 0.00 0.00 65 1020.5
20260502091527 67 244 0.9 2.6 0.00 0.00 0.00 69 1020.5
20260502090538 65 332 0.9 1.7 0.00 0.00 0.00 70 1020.4